User: anonymous   Login
Location: Delettes
(50.6178°N, 2.2123°E)
Time: 05:54:53
(UTC+00:00)
Language:

Cosmos 1674 Rocket - Orbit

View from above orbital plane
View from above orbital plane
View from above satellite
View from above satellite

Ground track
Ground track

The orbit data is extracted from the following two-line orbital elements,

1 15945U 85069B   20152.66965072  .00000064  00000-0  47470-5 0  9990
2 15945  82.5286 201.9973 0018696 323.0426  36.9500 14.84036883881126
Epoch (UTC): 31 May 2020 16:04:17
Eccentricity: 0.0018696
inclination: 82.5286°
perigee height: 603 km
apogee height: 629 km
right ascension of ascending node: 201.9973°
argument of perigee: 323.0426°
revolutions per day: 14.84036883
mean anomaly at epoch: 36.9500°
orbit number at epoch: 88112

The dashed part of the orbit path shows where the satellite is in the earth's shadow,  

DLR